Location: Isle of Man Observatory
(54.1776°N, 4.6264°W)
Time: 21:00:08
(UTC+02:00)

N. Korean satellite - Visible Passes

Search period start: 22 September 2018 00:00
Search period end: 02 October 2018 00:00
Orbit: 458 x 511 km, 97.2° (Epoch: 21 September)

Date Brightness Start Highest point End Pass type
(mag) Time Alt. Az. Time Alt. Az. Time Alt. Az.
23 Sep 10.1 21:03:56 10° WSW 21:05:43 13° W 21:07:32 10° WNW visible
26 Sep 10.4 07:34:30 10° ENE 07:36:18 13° E 07:38:06 10° ESE visible
27 Sep 10.0 20:59:39 10° WSW 21:01:44 15° W 21:03:51 10° NW visible
28 Sep 9.4 20:34:09 10° SSW 20:37:09 25° W 20:40:13 10° NW visible
30 Sep 10.6 07:30:48 10° ENE 07:32:19 12° E 07:33:49 10° ESE visible
01 Oct 10.0 20:55:24 10° SW 20:57:43 16° W 21:00:04 10° NW visible
